Wind_Speed
5 7 1 2 5 4 6 6 2 7 5 6 7 1 7 6 6 4 16 16 24 24 24 24 24 24 22 22 21 20 20 19 19 17 15 15 13 12 10 9 9 8 8 8 9 9 8 8 9
1 3 2 3 3 6 5 6 7 6 4 5 6 4 2 6 7 12 20 21 25 23 23 23 25 26 23 21 20 19 19 19 18 17 15 13 11 10 8 7 6 6 7 6 7 7 7 8 7
4 2 3 3 2 6 7 6 5 7 5 4 4 4 3 5 5 18 14 25 24 22 21 24 25 25 24 20 19 18 17 16 16 15 14 13 10 7 6 5 4 4 4 4 4 4 4 6 8
3 1 3 2 9 5 4 4 5 6 4 3 3 6 7 5 11 11 25 26 24 22 20 25 24 24 23 20 18 17 15 14 15 13 12 10 8 6 5 4 2 2 2 2 1 1 1 1 1
2 1 3 4 6 5 3 5 5 2 5 4 1 5 7 5 10 22 25 23 22 23 21 26 24 22 20 19 16 15 15 15 14 13 10 8 7 7 5 2 0 2 2 3 2 1 1 5 4
5 3 6 6 3 2 6 5 3 5 4 2 2 7 8 11 20 23 23 22 21 20 21 21 24 21 18 17 15 14 14 14 14 12 9 6 6 6 3 2 2 4 4 5 5 3 5 6 5
5 2 6 10 8 3 4 6 8 7 5 3 4 6 9 14 18 21 21 20 21 19 21 20 20 21 18 16 15 14 14 14 12 11 7 8 8 6 4 2 2 4 6 6 6 4 6 6 7
4 3 5 5 5 4 6 8 2 6 4 5 3 3 10 18 19 21 21 19 20 20 18 19 18 17 17 15 15 14 13 13 12 16 14 9 9 6 5 4 6 6 7 7 7 4 6 6 7
2 2 5 8 4 5 5 9 5 4 6 4 4 5 10 23 21 21 21 20 20 20 18 17 16 16 15 13 13 13 12 15 18 17 13 16 13 12 12 11 12 10 10 9 7 5 4 5 6
3 1 6 5 4 6 9 9 8 6 7 6 8 10 20 24 24 23 24 23 21 20 20 18 17 16 15 13 15 13 14 17 16 13 9 16 14 16 13 11 10 12 12 9 7 6 4 5 6
1 4 4 2 3 2 3 9 8 9 5 5 9 16 20 24 23 22 21 21 21 20 18 19 17 16 15 17 14 14 16 13 12 11 10 14 16 12 9 10 7 7 8 3 5 6 4 7 6
3 3 5 5 3 2 4 3 4 8 3 5 7 16 21 23 23 21 19 18 19 20 19 17 16 16 15 11 12 13 14 10 11 11 13 12 11 12 9 7 5 6 4 6 5 5 7 6 8
4 4 5 6 9 8 4 2 3 5 7 4 9 17 19 20 19 18 17 16 17 18 19 18 17 16 16 16 15 13 12 11 8 10 11 11 11 11 13 8 3 7 2 3 5 5 5 6 7
7 9 8 3 5 1 3 5 2 9 3 7 11 15 19 23 21 17 19 18 16 16 17 19 18 16 15 15 14 12 11 6 8 5 9 8 9 10 8 9 3 4 4 5 5 6 5 6 7
5 6 2 4 7 3 9 6 7 5 6 11 13 12 13 14 16 17 16 17 16 17 15 15 18 16 16 15 15 12 11 8 11 10 7 8 7 10 5 7 4 4 7 4 4 5 5 7 5
5 4 5 7 11 3 7 7 5 4 8 11 12 11 16 16 17 14 12 13 12 14 15 14 14 15 15 15 14 14 11 15 10 9 6 7 8 9 8 8 7 6 5 5 4 4 5 10 8
4 2 3 5 9 1 6 8 4 3 6 8 8 7 11 16 16 13 10 11 11 12 13 15 13 14 13 13 14 13 10 11 12 10 8 8 8 10 9 10 8 8 6 6 4 4 6 6 5
3 4 3 6 5 5 9 8 4 4 4 6 7 7 7 12 11 13 11 5 7 11 12 13 13 13 12 11 10 11 11 10 12 10 9 10 11 11 11 12 13 10 9 6 6 7 5 5 4
7 7 6 5 2 2 6 7 4 5 4 4 1 1 10 17 9 17 12 7 8 11 10 12 13 12 12 11 10 9 11 11 10 9 10 11 13 14 14 13 14 13 10 7 6 5 6 2 5
8 8 4 5 1 2 4 8 6 5 2 1 7 11 16 18 11 13 11 8 10 11 11 11 12 12 12 11 9 9 8 8 12 12 14 15 14 15 15 15 14 15 11 9 7 5 4 4 5
10 8 7 6 5 4 5 8 7 7 5 4 7 11 14 17 14 14 11 8 8 7 8 9 10 10 10 10 8 9 9 9 9 8 9 12 13 14 15 16 15 16 15 10 9 6 4 2 6
11 5 7 5 8 2 6 2 5 6 5 6 10 13 14 13 12 13 10 10 10 9 9 9 7 6 7 8 8 9 11 11 8 8 9 9 10 14 16 16 16 17 14 14 10 7 6 7 2
3 4 6 5 6 6 7 8 9 5 7 9 12 14 15 15 17 14 11 10 9 9 8 8 7 8 8 6 9 9 10 10 9 9 8 6 9 11 13 15 14 16 16 14 12 10 9 7 5
7 8 4 6 6 10 7 7 9 6 7 10 13 13 16 17 14 12 9 8 8 8 9 9 7 6 6 7 7 7 9 10 8 8 8 6 7 8 9 10 13 15 16 16 13 11 11 8 8
9 11 8 9 6 1 5 5 9 10 8 9 14 17 18 18 16 14 11 9 8 8 8 9 10 9 8 7 8 8 6 8 9 8 6 6 8 8 9 10 12 14 16 16 14 13 11 11 9
14 15 7 5 3 1 4 3 8 10 11 10 11 20 20 19 17 15 13 11 8 7 6 6 8 9 10 10 8 8 7 6 6 6 6 6 7 7 8 9 11 13 14 16 15 14 12 11 10
9 11 9 6 7 7 5 4 7 8 9 12 17 21 21 20 18 16 14 12 10 9 7 6 6 4 5 7 9 8 7 6 5 5 6 6 8 9 10 10 11 13 14 17 17 16 13 13 13
11 4 9 10 5 7 5 3 4 16 15 14 16 21 21 20 16 13 11 10 9 7 6 8 7 5 7 8 10 9 9 8 8 7 5 7 8 9 12 10 11 13 15 18 21 19 18 18 15
9 10 10 8 7 3 4 7 5 17 18 18 18 18 19 19 17 13 9 7 6 7 7 6 4 3 1 3 6 8 8 9 9 10 10 8 8 10 12 13 12 13 15 18 21 22 20 20 19
9 14 16 11 12 7 8 3 3 13 19 21 20 17 15 15 14 15 14 13 13 14 14 13 12 10 9 7 7 6 7 9 13 9 11 13 12 10 11 13 14 15 15 16 20 21 21 22 22
Wind_Direction
12 341 3 309 235 215 108 90 94 103 119 73 127 103 30 23 1 56 142 152 153 154 154 153 159 160 152 151 148 148 149 148 152 157 151 146 140 133 125 116 109 101 97 97 98 95 91 92 96
318 350 333 291 250 150 103 118 104 66 67 130 152 188 94 86 43 124 144 151 152 155 150 153 156 161 157 154 155 153 151 151 151 158 155 153 154 148 139 127 115 102 96 91 86 82 85 94 101
358 35 279 278 147 98 122 133 87 111 118 73 102 59 43 67 85 140 156 150 153 155 154 159 156 159 160 160 162 163 167 167 166 162 161 161 161 155 147 131 117 104 92 89 76 73 81 96 102
333 272 230 114 90 94 70 108 130 130 123 50 78 82 86 57 146 159 149 149 155 157 161 162 159 162 163 164 166 169 172 177 178 176 171 172 164 172 167 151 128 73 49 33 63 71 81 143 167
349 262 120 79 88 98 85 94 144 126 63 76 118 94 76 56 138 145 148 151 162 156 169 163 166 167 168 166 170 177 180 179 181 184 180 182 187 195 191 178 331 323 324 309 296 272 288 264 229
217 264 125 99 110 163 167 141 152 208 192 98 150 108 79 116 135 147 152 154 161 165 162 172 174 175 177 179 181 183 187 188 189 190 188 200 207 212 217 233 281 299 302 296 278 242 233 244 213
332 296 77 103 138 189 189 173 219 195 213 183 146 128 128 141 150 151 155 157 159 166 167 172 173 182 186 189 192 191 197 201 202 198 190 202 225 224 229 266 292 302 308 300 278 238 230 233 216
318 296 119 94 145 121 196 194 277 216 136 125 170 143 161 163 157 155 160 162 162 167 178 171 176 177 180 181 186 182 188 197 198 205 199 207 218 225 237 273 295 287 302 298 291 258 234 235 233
337 206 94 87 89 99 171 191 193 199 154 162 130 87 143 161 158 161 163 168 170 170 175 179 176 183 177 180 191 189 185 195 217 243 253 198 210 228 247 265 273 277 281 285 274 266 237 244 249
292 347 49 356 352 81 170 206 181 187 189 169 134 121 144 158 163 167 173 174 177 176 177 183 182 185 186 184 198 195 198 216 239 244 258 215 221 237 235 257 271 274 277 270 260 259 254 280 241
275 16 343 325 327 290 182 207 208 227 203 214 193 160 160 162 167 176 180 181 182 182 180 187 185 185 188 202 196 193 214 230 236 232 233 224 231 234 235 264 280 279 277 244 280 283 271 241 263
274 56 286 338 1 293 235 292 213 239 62 354 194 176 169 171 173 176 180 186 182 183 187 189 191 188 190 207 196 208 214 209 213 209 226 243 230 225 245 270 277 290 227 246 264 240 249 254 259
274 344 305 302 307 279 274 25 74 38 316 254 158 162 168 171 174 175 171 178 185 187 190 192 196 197 195 198 206 203 205 220 221 226 233 239 233 240 237 248 257 287 244 259 263 266 255 258 265
328 307 308 349 31 46 170 71 221 15 15 148 158 157 168 174 177 176 175 172 181 187 192 197 199 201 197 201 212 206 210 209 221 230 245 238 238 240 220 216 252 290 265 266 284 259 244 261 259
295 280 199 41 347 69 144 88 47 42 103 129 138 154 167 183 177 186 183 176 175 182 189 197 200 207 207 209 218 218 216 212 229 227 243 226 221 222 228 210 227 230 264 288 282 273 264 267 271
273 236 203 67 0 77 220 88 71 87 121 131 136 155 171 195 185 181 194 179 183 181 192 190 195 203 211 217 220 222 227 218 253 253 236 225 223 219 227 220 217 255 273 279 271 271 271 275 281
234 89 12 126 34 150 228 107 104 128 146 148 155 167 191 195 184 188 184 184 181 183 189 195 197 197 205 211 226 230 235 238 249 246 237 233 232 230 233 227 220 254 256 262 249 277 289 268 280
63 345 350 11 53 75 83 91 117 143 187 199 220 269 207 182 174 186 192 199 178 181 191 200 202 201 203 218 233 242 236 238 248 241 240 236 226 233 236 228 229 230 249 244 239 244 273 281 292
319 305 317 78 89 73 69 91 115 150 195 213 173 53 152 149 141 185 187 196 180 181 186 194 201 204 212 213 226 241 247 239 243 242 243 245 234 235 235 237 230 227 248 246 264 249 288 281 275
293 287 290 125 118 241 130 105 114 131 115 154 131 112 144 158 168 188 188 194 181 182 189 199 197 208 211 212 230 245 244 232 243 243 242 247 247 237 233 235 228 221 233 230 253 242 236 265 255
261 285 303 297 137 116 173 142 141 122 146 140 145 144 148 160 159 166 175 180 168 175 181 197 209 208 209 216 219 238 253 244 246 250 255 254 250 239 237 229 228 228 224 233 245 242 249 252 232
262 1 286 252 231 213 226 77 154 142 137 181 163 162 161 169 163 157 160 165 167 172 176 180 185 196 210 221 231 249 265 265 273 263 253 244 235 237 234 226 231 222 214 223 234 244 225 253 244
336 337 292 241 238 226 170 260 117 164 157 155 176 167 164 159 158 156 161 163 165 177 182 192 184 184 209 249 260 264 267 275 265 256 246 246 227 229 228 226 224 214 212 227 222 230 236 240 239
303 267 207 197 226 236 108 274 151 150 125 139 155 157 162 162 162 166 168 177 184 190 193 199 208 211 231 249 261 255 277 281 280 269 242 217 227 245 229 225 216 213 214 218 226 232 238 239 246
239 227 222 218 203 169 101 253 69 126 140 142 155 156 161 163 169 173 177 189 194 202 210 218 222 231 234 251 265 276 274 277 279 273 274 249 223 226 237 230 226 224 225 221 229 232 230 247 254
211 233 240 268 214 161 147 253 115 129 143 159 166 161 165 173 176 177 177 183 201 213 216 220 225 232 232 238 255 273 285 282 272 278 244 256 250 245 237 240 231 227 226 227 233 235 243 244 255
181 234 288 278 209 266 109 138 156 155 154 168 176 167 170 174 176 180 187 182 194 213 207 199 179 191 221 238 245 257 274 278 240 249 249 252 244 237 242 236 231 231 232 227 227 239 238 241 251
274 214 214 235 238 258 140 225 105 178 176 171 173 174 170 166 171 172 180 183 182 200 205 208 241 246 249 259 255 254 272 279 281 274 303 274 245 248 232 240 238 237 235 229 229 231 242 246 248
191 222 239 284 275 302 252 111 125 183 177 169 175 169 165 162 158 158 157 152 154 140 137 142 147 170 224 278 264 272 281 268 256 269 292 288 281 267 257 251 243 239 237 236 236 233 233 241 244
292 246 216 229 196 246 306 53 117 176 175 173 169 172 165 158 153 144 135 127 123 116 113 109 103 89 68 43 18 340 315 290 289 273 275 274 272 264 256 245 244 240 238 237 239 240 239 247 246
Height
1515 1514 1513 1515 1511 1501 1513 1519 1517 1514 1512 1517 1518 1519 1520 1524 1525 1535 1537 1540 1544 1547 1548 1551 1555 1558 1560 1563 1565 1567 1569 1571 1573 1575 1577 1579 1580 1581 1583 1584 1585 1585 1586 1587 1587 1587 1588 1588 1589
1517 1515 1515 1513 1506 1505 1518 1513 1514 1515 1518 1518 1519 1521 1520 1528 1532 1533 1538 1542 1546 1549 1551 1552 1555 1559 1562 1565 1568 1570 1572 1573 1575 1577 1579 1581 1582 1583 1584 1586 1586 1587 1588 1589 1589 1589 1589 1590 1590
1516 1515 1515 1508 1506 1519 1515 1512 1512 1517 1518 1517 1517 1521 1523 1531 1534 1536 1539 1543 1548 1552 1555 1553 1557 1560 1563 1566 1569 1572 1573 1575 1577 1578 1580 1581 1583 1585 1586 1587 1588 1589 1590 1590 1590 1590 1590 1590 1590
1519 1519 1516 1504 1514 1515 1510 1511 1515 1515 1517 1517 1519 1519 1529 1533 1534 1537 1539 1545 1550 1554 1557 1555 1559 1561 1564 1567 1570 1573 1574 1577 1578 1579 1581 1583 1584 1586 1587 1588 1589 1590 1590 1590 1591 1591 1591 1590 1591
1519 1516 1510 1510 1517 1515 1516 1515 1515 1516 1516 1517 1520 1522 1529 1534 1535 1538 1542 1547 1551 1554 1557 1557 1559 1562 1565 1567 1571 1573 1576 1578 1580 1581 1583 1584 1585 1587 1588 1589 1590 1590 1590 1591 1591 1592 1590 1591 1592
1514 1513 1510 1520 1522 1517 1518 1518 1520 1518 1521 1521 1522 1524 1533 1535 1536 1540 1544 1548 1552 1555 1556 1559 1560 1563 1566 1569 1572 1574 1577 1579 1581 1583 1584 1585 1586 1587 1588 1589 1590 1590 1590 1591 1591 1592 1590 1590 1592
1514 1507 1511 1508 1517 1516 1513 1516 1517 1515 1521 1520 1523 1523 1534 1537 1539 1541 1546 1550 1553 1556 1556 1559 1562 1564 1567 1570 1572 1575 1578 1580 1582 1584 1585 1586 1587 1588 1588 1589 1590 1590 1591 1591 1590 1590 1590 1590 1591
1516 1512 1511 1508 1516 1513 1513 1516 1518 1518 1517 1523 1524 1523 1533 1536 1539 1542 1546 1550 1553 1557 1557 1560 1564 1566 1568 1571 1573 1575 1578 1580 1582 1579 1581 1586 1587 1587 1587 1589 1589 1590 1590 1589 1590 1590 1590 1590 1590
1517 1509 1513 1511 1508 1512 1514 1516 1517 1518 1519 1522 1525 1526 1529 1535 1540 1544 1547 1550 1553 1556 1559 1561 1565 1567 1569 1572 1575 1576 1578 1578 1579 1579 1579 1582 1585 1585 1586 1588 1589 1589 1589 1590 1590 1590 1590 1589 1591
1515 1509 1514 1512 1509 1508 1513 1514 1515 1517 1517 1522 1527 1529 1531 1533 1538 1542 1545 1549 1552 1555 1559 1562 1565 1567 1569 1572 1573 1574 1576 1576 1578 1579 1580 1582 1584 1585 1586 1587 1587 1588 1588 1589 1589 1589 1589 1589 1592
1514 1513 1513 1512 1512 1512 1511 1514 1515 1515 1515 1517 1522 1528 1530 1533 1537 1541 1545 1548 1551 1555 1559 1562 1564 1567 1569 1569 1572 1573 1573 1576 1577 1578 1579 1580 1582 1585 1585 1586 1587 1588 1587 1589 1589 1590 1590 1590 1588
1513 1513 1513 1512 1513 1513 1513 1514 1515 1516 1518 1520 1521 1526 1529 1534 1538 1540 1544 1548 1551 1554 1557 1561 1564 1565 1568 1570 1572 1572 1574 1576 1576 1578 1578 1579 1580 1582 1584 1585 1587 1585 1588 1588 1587 1588 1588 1587 1588
1512 1512 1512 1513 1512 1511 1512 1515 1516 1520 1521 1521 1523 1526 1531 1535 1539 1541 1544 1547 1551 1553 1557 1561 1563 1564 1567 1569 1571 1571 1572 1574 1576 1575 1577 1578 1579 1580 1582 1583 1586 1585 1585 1587 1587 1586 1587 1587 1587
1514 1512 1511 1511 1511 1510 1511 1517 1517 1523 1521 1520 1524 1527 1531 1532 1536 1541 1543 1546 1550 1553 1556 1558 1562 1562 1564 1566 1568 1570 1571 1574 1575 1575 1575 1576 1577 1578 1577 1580 1583 1585 1586 1585 1584 1585 1585 1586 1586
1513 1511 1508 1510 1510 1509 1513 1516 1522 1525 1523 1523 1525 1531 1534 1537 1538 1541 1544 1546 1549 1553 1556 1556 1558 1561 1562 1564 1566 1568 1570 1574 1573 1574 1574 1575 1575 1576 1576 1579 1580 1584 1583 1581 1583 1582 1583 1583 1583
1510 1508 1509 1510 1510 1512 1512 1521 1524 1525 1523 1524 1527 1530 1529 1535 1536 1540 1540 1545 1548 1550 1554 1555 1557 1560 1561 1562 1564 1566 1568 1569 1572 1572 1573 1573 1574 1576 1576 1577 1578 1581 1582 1581 1582 1583 1584 1581 1581
1506 1512 1515 1511 1511 1509 1508 1518 1525 1525 1523 1526 1528 1529 1530 1533 1535 1537 1543 1544 1547 1550 1551 1554 1555 1558 1560 1561 1562 1564 1566 1568 1570 1570 1570 1572 1573 1574 1575 1576 1578 1580 1581 1580 1580 1583 1581 1580 1581
1517 1513 1512 1514 1512 1508 1510 1519 1523 1524 1524 1525 1526 1526 1529 1533 1537 1537 1541 1546 1546 1548 1551 1552 1554 1556 1557 1558 1561 1562 1563 1566 1567 1568 1569 1570 1572 1572 1574 1575 1577 1578 1580 1579 1580 1581 1582 1580 1580
1513 1514 1513 1509 1512 1511 1514 1518 1521 1523 1523 1523 1524 1526 1530 1532 1534 1539 1542 1544 1546 1548 1550 1551 1554 1555 1556 1558 1560 1560 1562 1563 1564 1566 1567 1568 1569 1570 1572 1574 1575 1576 1578 1578 1579 1578 1580 1580 1580
1512 1513 1508 1510 1512 1508 1513 1519 1519 1520 1521 1522 1525 1527 1531 1533 1537 1540 1542 1545 1546 1548 1549 1550 1553 1554 1555 1556 1557 1559 1560 1562 1562 1562 1564 1565 1566 1567 1569 1571 1572 1574 1577 1577 1578 1579 1580 1580 1579
1507 1507 1507 1510 1512 1509 1511 1516 1516 1520 1522 1524 1525 1527 1531 1533 1535 1539 1542 1545 1546 1548 1550 1551 1553 1553 1554 1557 1556 1558 1560 1560 1560 1561 1560 1561 1564 1565 1566 1567 1569 1571 1574 1576 1576 1576 1577 1575 1577
1511 1505 1505 1507 1510 1511 1506 1518 1515 1516 1517 1522 1524 1526 1529 1532 1535 1538 1542 1544 1545 1548 1550 1551 1553 1553 1554 1554 1555 1556 1558 1558 1560 1559 1559 1560 1558 1560 1562 1564 1566 1568 1572 1574 1574 1575 1575 1575 1575
1505 1505 1502 1501 1503 1504 1507 1510 1510 1511 1514 1517 1520 1523 1527 1531 1535 1538 1540 1543 1546 1547 1549 1549 1550 1551 1552 1553 1554 1555 1556 1556 1557 1557 1556 1556 1557 1557 1558 1560 1561 1564 1567 1570 1572 1573 1573 1575 1575
1504 1506 1502 1498 1495 1511 1502 1506 1503 1503 1509 1513 1517 1522 1526 1531 1535 1538 1541 1543 1545 1547 1548 1549 1549 1549 1550 1550 1550 1553 1553 1554 1554 1554 1554 1555 1555 1555 1556 1558 1559 1562 1565 1567 1568 1569 1571 1572 1573
1503 1501 1511 1514 1512 1521 1503 1510 1503 1502 1508 1509 1514 1520 1526 1531 1534 1537 1540 1542 1544 1546 1546 1547 1546 1546 1547 1548 1549 1550 1550 1550 1550 1552 1551 1551 1553 1555 1555 1555 1558 1560 1562 1564 1566 1567 1569 1570 1571
1497 1492 1505 1525 1518 1516 1504 1510 1502 1501 1509 1513 1514 1518 1524 1529 1531 1535 1538 1540 1543 1543 1544 1545 1546 1546 1546 1546 1546 1546 1547 1547 1549 1550 1551 1552 1553 1553 1553 1555 1555 1557 1560 1562 1564 1565 1567 1569 1570
1495 1503 1478 1489 1490 1501 1492 1500 1502 1504 1509 1512 1513 1516 1520 1525 1529 1533 1535 1537 1540 1542 1543 1544 1543 1545 1545 1544 1543 1544 1544 1545 1547 1547 1547 1549 1548 1550 1550 1551 1553 1555 1556 1558 1561 1562 1565 1565 1567
1492 1480 1498 1489 1518 1517 1499 1499 1493 1502 1506 1509 1511 1514 1519 1523 1528 1531 1535 1537 1538 1540 1541 1542 1541 1544 1543 1542 1542 1543 1543 1543 1543 1544 1545 1545 1545 1545 1547 1548 1549 1550 1551 1553 1555 1558 1561 1562 1563
1492 1491 1488 1488 1481 1509 1506 1493 1474 1490 1497 1505 1510 1513 1519 1524 1527 1531 1534 1536 1537 1536 1538 1540 1541 1542 1542 1541 1541 1540 1540 1540 1540 1542 1542 1541 1542 1542 1542 1543 1545 1547 1548 1549 1550 1552 1555 1557 1557
1480 1480 1480 1493 1499 1487 1493 1489 1484 1486 1495 1503 1510 1515 1521 1526 1529 1530 1532 1535 1537 1537 1538 1539 1539 1540 1539 1539 1540 1539 1538 1537 1536 1538 1538 1539 1539 1539 1539 1540 1541 1542 1543 1545 1547 1548 1550 1552 1553